Flag for Poland Weather past 2 weeks in Gorzów Wielkopolski, Poland

Now
71 °F

Passing clouds.


Feels Like: 77 °F
Forecast: 61 / 83 °F
Wind: 2 mph from Southeast

Location: Gorzow Wlkp

Current Time: Aug 1, 2015 at 2:40:32 PM

Latest Report: Aug 1, 2015 at 2:00 PM


Visibility: 25 mi

Pressure: 30.07 "Hg

Humidity: 34%

Dew point: 41 °F

Location of Gorzów WielkopolskiLocation

Historic Weather in Gorzów Wielkopolski — Graph

°F

Gorzów Wielkopolski temperature yesterday

Maximum temperature yesterday: 64 °F (at 7:00 PM)
Minimum temperature yesterday: 49 °F (at 4:00 AM)
Average temperature yesterday: 58 °F

Past Weeks' High & Low Weather Summary

 TemperatureHumidityPressure
High84 °F (Jul 22, 3:00 PM)99% (Jul 28, 2:00 AM)30.12 "Hg (Jul 28, 2:00 AM)
Low47 °F (Aug 1, 4:00 AM)34% (Jul 25, 7:00 PM)29.56 "Hg (Jul 25, 5:00 PM)
Average65 °F67%29.84 "Hg
* Reported Jul 17 1:00 PM — Aug 1 1:00 PM, Gorzów Wielkopolski, Weather by CustomWeather, © 2015

Note: Actual official high and low records may vary slightly from our data, if they occured in-between our weather recording intervals... More about our weather records

Advertising

Gorzów Wielkopolski weather history for previous 24 hours

 ConditionsComfort  
Time TempWeatherWind HumidityBarometerVisibility
1:00 PM
Sat, Aug 1
70 °FScattered clouds.3 mph36%30.09 "Hg25 mi
12:00 PM68 °FPartly sunny.2 mph44%30.10 "Hg25 mi
11:00 AM64 °FOvercast.3 mph52%30.11 "Hg25 mi
10:00 AM62 °FPartly sunny.3 mph52%30.11 "Hg31 mi
9:00 AM57 °FOvercast.1 mph74%30.12 "Hg25 mi
8:00 AM54 °FOvercast.1 mph80%30.12 "Hg9 mi
7:00 AM47 °FOvercast.1 mph89%30.12 "Hg6 mi
4:00 AM47 °FFog.1 mph90%30.12 "Hg6 mi
3:00 AM48 °FFog.1 mph86%30.11 "Hg7 mi
2:00 AM50 °FFog.No wind85%30.11 "Hg9 mi
1:00 AM52 °FPassing clouds.1 mph79%30.10 "Hg12 mi
12:00 AM54 °FPassing clouds.2 mph74%30.09 "Hg16 mi
11:00 PM
Fri, Jul 31
54 °FPassing clouds.1 mph71%30.09 "Hg19 mi
10:00 PM57 °FPassing clouds.1 mph67%30.09 "Hg19 mi
9:00 PM59 °FPassing clouds.1 mph59%30.08 "Hg19 mi
8:00 PM61 °FPartly sunny.3 mph52%30.07 "Hg25 mi
7:00 PM64 °FPartly sunny.3 mph43%30.06 "Hg31 mi
6:00 PM63 °FPartly sunny.2 mph45%30.07 "Hg31 mi
5:00 PM63 °FOvercast.5 mph44%30.07 "Hg31 mi
4:00 PM63 °FOvercast.3 mph47%30.07 "Hg31 mi
3:00 PM63 °FOvercast.5 mph44%30.07 "Hg31 mi
2:00 PM62 °FOvercast.5 mph51%30.07 "Hg31 mi
Weather by CustomWeather, © 2015

See weather overviewHow to use our weather pages